Zurück zum Katalog

SL-8 R/B

AktivPO
NORAD 11668·ROCKET BODY·🇷🇺 Russia

Gestartet Jan 14, 1980 von Plesetsk Cosmodrome

Loading…

Nächste Überflüge (nächste 24 Stunden)

TLE

AktuellSource: Space-Track

Epoche: Sep 14, 2026, 10:38 UTC

1 11668U 80003B   26257.44307398  .00000134  00000-0  12287-3 0  9994
2 11668  82.9458  63.7870 0020637 231.0484 157.2103 13.75950113336704

Verfolge SL-8 R/B in Echtzeit mit AllMySat

Download on the App Store